DLH8PP EDDF-LMML

Flight info

Callsign DLH8PP
Flight time 2h 13m
Altitude 33000
Route ANEKI2L/18 ANEKI Y163 NATOR DCT TRA DCT RIPUS DCT GERSA DCT SOSON DCT ODINA DCT BETEN DCT RONAB DCT MARON DCT EKOLA L12 GZO
Aircraft A321/M-SDE3FGHIRWY/LB1

Departure

Time 2026-04-14 14:06
Airport Frankfurt Main Airport (EDDF)

Arrival

Time 2026-04-14 16:20
Airport Malta International Airport (LMML)
Time Latitude Longitude Altitude Speed Heading
2026-04-14 13:24 50.04764 8.58239 362 ft 0 kts 159°
2026-04-14 13:48 50.04769 8.58236 362 ft 3 kts 159°
2026-04-14 13:48 50.04791 8.58223 364 ft 3 kts 159°
2026-04-14 13:48 50.04811 8.58212 360 ft 3 kts 171°
2026-04-14 13:48 50.04832 8.58212 364 ft 3 kts 208°
2026-04-14 13:49 50.04846 8.58234 359 ft 2 kts 249°
2026-04-14 13:49 50.04853 8.58261 359 ft 3 kts 249°
2026-04-14 13:49 50.04859 8.58286 359 ft 0 kts 249°
2026-04-14 13:49 50.04858 8.58286 359 ft 0 kts 249°
2026-04-14 13:55 50.04858 8.58283 359 ft 1 kts 249°
2026-04-14 13:55 50.04850 8.58251 359 ft 5 kts 250°
2026-04-14 13:55 50.04831 8.58171 359 ft 11 kts 249°
2026-04-14 13:55 50.04796 8.58028 357 ft 15 kts 246°
2026-04-14 13:56 50.04721 8.57910 365 ft 16 kts 222°
2026-04-14 13:56 50.04674 8.57760 359 ft 15 kts 250°
2026-04-14 13:56 50.04647 8.57646 363 ft 11 kts 249°
2026-04-14 13:56 50.04619 8.57531 357 ft 12 kts 250°
2026-04-14 13:57 50.04590 8.57406 357 ft 13 kts 250°
2026-04-14 13:57 50.04559 8.57274 359 ft 13 kts 249°
2026-04-14 13:57 50.04524 8.57131 360 ft 15 kts 249°
2026-04-14 13:57 50.04484 8.56965 364 ft 17 kts 250°
2026-04-14 13:58 50.04441 8.56784 363 ft 20 kts 250°
2026-04-14 13:58 50.04387 8.56556 360 ft 25 kts 250°
2026-04-14 13:58 50.04322 8.56284 361 ft 27 kts 249°
2026-04-14 13:58 50.04256 8.56007 358 ft 27 kts 249°
2026-04-14 13:59 50.04188 8.55726 357 ft 28 kts 250°
2026-04-14 13:59 50.04123 8.55447 360 ft 23 kts 250°
2026-04-14 13:59 50.04077 8.55258 359 ft 16 kts 249°
2026-04-14 13:59 50.04039 8.55101 355 ft 16 kts 249°
2026-04-14 14:00 50.04000 8.54940 352 ft 17 kts 250°
2026-04-14 14:00 50.03957 8.54758 354 ft 19 kts 249°
2026-04-14 14:00 50.03909 8.54558 354 ft 21 kts 250°
2026-04-14 14:00 50.03849 8.54343 353 ft 22 kts 234°
2026-04-14 14:01 50.03778 8.54131 351 ft 22 kts 250°
2026-04-14 14:01 50.03723 8.53902 343 ft 23 kts 249°
2026-04-14 14:01 50.03666 8.53665 344 ft 24 kts 250°
2026-04-14 14:01 50.03606 8.53425 336 ft 24 kts 249°
2026-04-14 14:02 50.03546 8.53178 334 ft 23 kts 249°
2026-04-14 14:02 50.03507 8.53007 333 ft 15 kts 250°
2026-04-14 14:02 50.03467 8.52856 333 ft 9 kts 246°
2026-04-14 14:02 50.03445 8.52778 336 ft 8 kts 249°
2026-04-14 14:03 50.03435 8.52735 336 ft 0 kts 250°
2026-04-14 14:03 50.03435 8.52733 333 ft 1 kts 250°
2026-04-14 14:03 50.03422 8.52682 332 ft 12 kts 248°
2026-04-14 14:03 50.03332 8.52593 335 ft 18 kts 180°
2026-04-14 14:04 50.03194 8.52595 335 ft 22 kts 180°
2026-04-14 14:04 50.03041 8.52597 335 ft 21 kts 180°
2026-04-14 14:04 50.02961 8.52598 335 ft 0 kts 179°
2026-04-14 14:05 50.02937 8.52598 335 ft 18 kts 179°
2026-04-14 14:05 50.02547 8.52603 333 ft 91 kts 179°
2026-04-14 14:06 50.01703 8.52611 332 ft 150 kts 179°
2026-04-14 14:06 50.00511 8.52619 580 ft 176 kts 180°
2026-04-14 14:06 49.99310 8.52649 1375 ft 173 kts 178°
2026-04-14 14:06 49.98099 8.52718 1809 ft 184 kts 178°
2026-04-14 14:07 49.96741 8.52814 2074 ft 200 kts 176°
2026-04-14 14:07 49.95293 8.52935 2340 ft 216 kts 176°
2026-04-14 14:07 49.93747 8.53076 2637 ft 229 kts 176°
2026-04-14 14:07 49.92134 8.53221 2983 ft 240 kts 177°
2026-04-14 14:08 49.90456 8.53332 3586 ft 241 kts 177°
2026-04-14 14:08 49.88783 8.53419 4229 ft 241 kts 177°
2026-04-14 14:08 49.87094 8.53525 4778 ft 245 kts 176°
2026-04-14 14:08 49.85388 8.53622 5382 ft 245 kts 177°
2026-04-14 14:09 49.83692 8.53728 5994 ft 242 kts 175°
2026-04-14 14:09 49.81986 8.53855 6460 ft 249 kts 176°
2026-04-14 14:09 49.80239 8.53973 6945 ft 253 kts 176°
2026-04-14 14:09 49.78486 8.54081 7528 ft 251 kts 177°
2026-04-14 14:10 49.76721 8.53961 7878 ft 261 kts 183°
2026-04-14 14:10 49.74859 8.53740 8114 ft 277 kts 184°
2026-04-14 14:10 49.72897 8.53474 8563 ft 285 kts 185°
2026-04-14 14:10 49.70915 8.53194 9245 ft 286 kts 186°
2026-04-14 14:11 49.68939 8.52929 9959 ft 284 kts 186°
2026-04-14 14:11 49.66966 8.52671 10496 ft 290 kts 186°
2026-04-14 14:11 49.64887 8.52392 10617 ft 309 kts 186°
2026-04-14 14:11 49.62686 8.52098 10749 ft 326 kts 186°
2026-04-14 14:12 49.60368 8.51791 10877 ft 342 kts 185°
2026-04-14 14:12 49.57943 8.51471 11008 ft 358 kts 186°
2026-04-14 14:12 49.55431 8.51141 11321 ft 365 kts 185°
2026-04-14 14:12 49.52878 8.50807 11766 ft 369 kts 186°
2026-04-14 14:13 49.50308 8.50474 12228 ft 372 kts 186°
2026-04-14 14:13 49.47712 8.50139 12681 ft 376 kts 186°
2026-04-14 14:13 49.45095 8.49796 13105 ft 379 kts 186°
2026-04-14 14:13 49.42468 8.49451 13210 ft 380 kts 186°
2026-04-14 14:14 49.39833 8.49106 13216 ft 380 kts 186°
2026-04-14 14:14 49.37202 8.48759 13218 ft 379 kts 186°
2026-04-14 14:14 49.34576 8.48413 13215 ft 379 kts 186°
2026-04-14 14:14 49.31945 8.48069 13212 ft 379 kts 186°
2026-04-14 14:15 49.29299 8.47723 13573 ft 383 kts 186°
2026-04-14 14:15 49.26642 8.47378 14085 ft 385 kts 186°
2026-04-14 14:15 49.23965 8.47031 14529 ft 387 kts 186°
2026-04-14 14:15 49.21272 8.46682 14952 ft 389 kts 186°
2026-04-14 14:16 49.18562 8.46333 15372 ft 392 kts 186°
2026-04-14 14:16 49.15836 8.45979 15788 ft 394 kts 186°
2026-04-14 14:16 49.13094 8.45622 16179 ft 397 kts 186°
2026-04-14 14:17 49.07555 8.44900 17025 ft 401 kts 186°
2026-04-14 14:17 49.04796 8.44215 17404 ft 403 kts 194°
2026-04-14 14:17 49.02054 8.43257 17798 ft 405 kts 194°
2026-04-14 14:17 48.99307 8.42296 18168 ft 408 kts 194°
2026-04-14 14:18 48.96530 8.41327 18541 ft 410 kts 194°
2026-04-14 14:18 48.93747 8.40359 18902 ft 411 kts 194°
2026-04-14 14:18 48.90949 8.39384 19254 ft 413 kts 194°
2026-04-14 14:18 48.88141 8.38409 19614 ft 415 kts 194°
2026-04-14 14:19 48.85324 8.37434 19973 ft 416 kts 194°
2026-04-14 14:19 48.82499 8.36458 20336 ft 418 kts 194°
2026-04-14 14:19 48.79656 8.35477 20695 ft 419 kts 194°
2026-04-14 14:19 48.76805 8.34482 21055 ft 421 kts 194°
2026-04-14 14:20 48.73949 8.33457 21407 ft 422 kts 194°
2026-04-14 14:20 48.71089 8.32407 21740 ft 424 kts 194°
2026-04-14 14:20 48.68217 8.31342 22072 ft 425 kts 195°
2026-04-14 14:20 48.65344 8.30277 22409 ft 427 kts 195°
2026-04-14 14:21 48.62450 8.29211 22744 ft 428 kts 195°
2026-04-14 14:21 48.59559 8.28150 23071 ft 429 kts 194°
2026-04-14 14:21 48.56648 8.27088 23400 ft 431 kts 194°
2026-04-14 14:21 48.53724 8.26027 23719 ft 432 kts 194°
2026-04-14 14:22 48.50780 8.25124 23978 ft 435 kts 188°
2026-04-14 14:22 48.47738 8.24899 24216 ft 439 kts 179°
2026-04-14 14:22 48.44692 8.25412 24455 ft 443 kts 172°
2026-04-14 14:22 48.41647 8.26173 24699 ft 445 kts 172°
2026-04-14 14:23 48.38585 8.26924 24945 ft 447 kts 172°
2026-04-14 14:23 48.36548 8.27420 25093 ft 448 kts 172°
2026-04-14 14:23 48.32460 8.28408 25381 ft 451 kts 172°
2026-04-14 14:23 48.29356 8.29154 25609 ft 453 kts 172°
2026-04-14 14:24 48.26230 8.29906 25833 ft 455 kts 172°
2026-04-14 14:24 48.23103 8.30658 26046 ft 457 kts 172°
2026-04-14 14:24 48.20981 8.31168 26185 ft 458 kts 172°
2026-04-14 14:24 48.17824 8.31928 26386 ft 460 kts 172°
2026-04-14 14:25 48.14658 8.32690 26584 ft 462 kts 172°
2026-04-14 14:25 48.11477 8.33458 26758 ft 464 kts 172°
2026-04-14 14:25 48.08326 8.34224 26930 ft 465 kts 172°
2026-04-14 14:25 48.05129 8.35003 27182 ft 465 kts 172°
2026-04-14 14:26 48.01899 8.35788 27433 ft 465 kts 172°
2026-04-14 14:26 47.98750 8.36549 27679 ft 465 kts 172°
2026-04-14 14:26 47.95553 8.37320 27914 ft 465 kts 172°
2026-04-14 14:26 47.92356 8.38087 28159 ft 465 kts 172°
2026-04-14 14:27 47.89163 8.38852 28389 ft 465 kts 172°
2026-04-14 14:27 47.85970 8.39619 28633 ft 465 kts 171°
2026-04-14 14:27 47.82768 8.40392 28866 ft 466 kts 172°
2026-04-14 14:27 47.79564 8.41168 29118 ft 466 kts 171°
2026-04-14 14:28 47.76371 8.41938 29368 ft 466 kts 171°
2026-04-14 14:28 47.73166 8.42706 29633 ft 465 kts 172°
2026-04-14 14:28 47.69990 8.43462 30043 ft 460 kts 172°
2026-04-14 14:28 47.66844 8.44151 30463 ft 455 kts 173°
2026-04-14 14:29 47.63708 8.44693 30728 ft 453 kts 175°
2026-04-14 14:29 47.60568 8.45127 30941 ft 453 kts 176°
2026-04-14 14:29 47.57428 8.45514 31116 ft 453 kts 176°
2026-04-14 14:29 47.54284 8.45900 31289 ft 453 kts 175°
2026-04-14 14:30 47.51137 8.46309 31470 ft 454 kts 175°
2026-04-14 14:30 47.47994 8.46747 31642 ft 454 kts 174°
2026-04-14 14:30 47.44844 8.47207 31796 ft 455 kts 175°
2026-04-14 14:30 47.41690 8.47680 31968 ft 456 kts 174°
2026-04-14 14:31 47.38529 8.48158 32153 ft 456 kts 174°
2026-04-14 14:31 47.35376 8.48635 32329 ft 456 kts 174°
2026-04-14 14:31 47.32219 8.49109 32516 ft 456 kts 175°
2026-04-14 14:31 47.29049 8.49573 32691 ft 457 kts 175°
2026-04-14 14:32 47.25888 8.50028 32864 ft 457 kts 175°
2026-04-14 14:32 47.22721 8.50480 33026 ft 457 kts 175°
2026-04-14 14:32 47.19552 8.50933 33167 ft 459 kts 175°
2026-04-14 14:32 47.16375 8.51395 33190 ft 459 kts 174°
2026-04-14 14:33 47.10004 8.52331 33184 ft 460 kts 175°
2026-04-14 14:33 47.03632 8.53262 33179 ft 460 kts 174°
2026-04-14 14:34 46.94079 8.54634 33174 ft 460 kts 175°
2026-04-14 14:35 46.87701 8.55540 33162 ft 461 kts 175°
2026-04-14 14:35 46.81320 8.56461 33146 ft 461 kts 175°
2026-04-14 14:36 46.74940 8.57375 33175 ft 461 kts 174°
2026-04-14 14:36 46.68561 8.58288 33151 ft 460 kts 174°
2026-04-14 14:37 46.62192 8.59201 33129 ft 460 kts 174°
2026-04-14 14:37 46.55829 8.60113 33107 ft 459 kts 174°
2026-04-14 14:38 46.49470 8.61002 33375 ft 459 kts 174°
2026-04-14 14:38 46.46301 8.61446 33562 ft 458 kts 174°
2026-04-14 14:38 46.43130 8.61895 33756 ft 457 kts 174°
2026-04-14 14:38 46.39972 8.62349 33892 ft 456 kts 174°
2026-04-14 14:39 46.36817 8.62805 34030 ft 456 kts 174°
2026-04-14 14:39 46.33655 8.63258 34152 ft 456 kts 174°
2026-04-14 14:39 46.30496 8.63706 34257 ft 457 kts 174°
2026-04-14 14:39 46.27325 8.64146 34374 ft 457 kts 174°
2026-04-14 14:40 46.24162 8.64583 34488 ft 457 kts 174°
2026-04-14 14:40 46.20997 8.65022 34608 ft 457 kts 174°
2026-04-14 14:40 46.17830 8.65461 34733 ft 457 kts 174°
2026-04-14 14:40 46.14670 8.65899 34881 ft 456 kts 174°
2026-04-14 14:41 46.11546 8.66377 34969 ft 457 kts 171°
2026-04-14 14:41 46.05390 8.68750 34978 ft 459 kts 162°
2026-04-14 14:42 45.99298 8.71525 34973 ft 460 kts 162°
2026-04-14 14:42 45.93185 8.74284 34975 ft 460 kts 162°
2026-04-14 14:43 45.87075 8.77025 34978 ft 460 kts 162°
2026-04-14 14:43 45.80964 8.79769 34988 ft 461 kts 162°
2026-04-14 14:44 45.74832 8.82516 35000 ft 462 kts 162°
2026-04-14 14:44 45.68706 8.85252 35019 ft 461 kts 162°
2026-04-14 14:45 45.62577 8.87983 35016 ft 462 kts 162°
2026-04-14 14:45 45.56435 8.90711 35024 ft 462 kts 162°
2026-04-14 14:46 45.50326 8.93424 35028 ft 462 kts 162°
2026-04-14 14:46 45.44183 8.96138 35037 ft 462 kts 161°
2026-04-14 14:47 45.38041 8.98856 35030 ft 462 kts 162°
2026-04-14 14:47 45.31911 9.01560 35032 ft 461 kts 162°
2026-04-14 14:48 45.25788 9.04250 35039 ft 461 kts 162°
2026-04-14 14:48 45.19654 9.06938 35028 ft 461 kts 162°
2026-04-14 14:49 45.13660 9.09552 35027 ft 461 kts 162°
2026-04-14 14:49 45.07530 9.12225 35028 ft 461 kts 162°
2026-04-14 14:50 45.01408 9.14904 35022 ft 461 kts 162°
2026-04-14 14:50 44.96213 9.17205 35025 ft 460 kts 162°
2026-04-14 14:51 44.90090 9.19854 35037 ft 459 kts 163°
2026-04-14 14:51 44.83988 9.22463 35037 ft 457 kts 163°
2026-04-14 14:52 44.77905 9.25081 35030 ft 456 kts 163°
2026-04-14 14:52 44.71843 9.27697 35018 ft 455 kts 163°
2026-04-14 14:53 44.65789 9.30295 35004 ft 455 kts 163°
2026-04-14 14:53 44.59742 9.32887 35000 ft 454 kts 163°
2026-04-14 14:54 44.53698 9.35477 34999 ft 454 kts 163°
2026-04-14 14:54 44.47648 9.38066 34997 ft 454 kts 163°
2026-04-14 14:55 44.41599 9.40650 34997 ft 454 kts 163°
2026-04-14 14:55 44.35560 9.43221 34988 ft 454 kts 163°
2026-04-14 14:56 44.26504 9.47052 34977 ft 453 kts 164°
2026-04-14 14:56 44.20521 9.49583 34971 ft 451 kts 163°
2026-04-14 14:57 44.14628 9.52071 34977 ft 450 kts 163°
2026-04-14 14:57 44.08672 9.54576 34964 ft 449 kts 164°
2026-04-14 14:58 44.06687 9.55409 34972 ft 449 kts 163°
2026-04-14 14:58 44.00218 9.57305 34965 ft 446 kts 165°
2026-04-14 14:59 43.94360 9.60057 34919 ft 445 kts 159°
2026-04-14 14:59 43.88538 9.63026 34916 ft 446 kts 161°
2026-04-14 15:00 43.82616 9.65643 34919 ft 448 kts 163°
2026-04-14 15:00 43.76622 9.68054 34935 ft 449 kts 164°
2026-04-14 15:01 43.70627 9.70472 34938 ft 449 kts 163°
2026-04-14 15:01 43.64624 9.72953 34937 ft 450 kts 163°
2026-04-14 15:02 43.58632 9.75447 34943 ft 449 kts 163°
2026-04-14 15:02 43.52766 9.78379 34949 ft 449 kts 156°
2026-04-14 15:03 43.47062 9.81880 34946 ft 448 kts 156°
2026-04-14 15:03 43.41372 9.85363 34950 ft 447 kts 155°
2026-04-14 15:04 43.35706 9.88828 34949 ft 445 kts 155°
2026-04-14 15:04 43.30057 9.92268 34946 ft 444 kts 155°
2026-04-14 15:05 43.24524 9.95630 34950 ft 442 kts 155°
2026-04-14 15:05 43.18893 9.99039 34949 ft 442 kts 155°
2026-04-14 15:06 43.13268 10.02450 34945 ft 442 kts 155°
2026-04-14 15:06 43.07642 10.05848 34944 ft 442 kts 155°
2026-04-14 15:07 43.02013 10.09245 34933 ft 442 kts 155°
2026-04-14 15:07 42.97337 10.12059 34935 ft 442 kts 155°
2026-04-14 15:08 42.91698 10.15442 34932 ft 443 kts 155°
2026-04-14 15:08 42.86059 10.18824 34932 ft 443 kts 155°
2026-04-14 15:09 42.80414 10.22201 34929 ft 442 kts 156°
2026-04-14 15:09 42.74780 10.25562 34940 ft 442 kts 155°
2026-04-14 15:10 42.69157 10.28922 34938 ft 441 kts 155°
2026-04-14 15:10 42.63528 10.32272 34935 ft 442 kts 155°
2026-04-14 15:11 42.59222 10.34857 34933 ft 442 kts 155°
2026-04-14 15:11 42.54480 10.37667 34941 ft 442 kts 156°
2026-04-14 15:12 42.48837 10.40981 34927 ft 442 kts 156°
2026-04-14 15:12 42.44389 10.43654 34924 ft 441 kts 154°
2026-04-14 15:13 42.38780 10.47012 34923 ft 441 kts 156°
2026-04-14 15:13 42.33118 10.50268 34922 ft 442 kts 156°
2026-04-14 15:14 42.27466 10.53536 34922 ft 442 kts 156°
2026-04-14 15:14 42.21828 10.56848 34922 ft 442 kts 156°
2026-04-14 15:15 42.16195 10.60157 34922 ft 441 kts 156°
2026-04-14 15:15 42.10611 10.63422 34940 ft 440 kts 156°
2026-04-14 15:16 42.04992 10.66698 34937 ft 440 kts 156°
2026-04-14 15:16 41.99371 10.69963 34935 ft 440 kts 156°
2026-04-14 15:17 41.93759 10.73222 34928 ft 439 kts 156°
2026-04-14 15:17 41.88146 10.76473 34931 ft 439 kts 156°
2026-04-14 15:18 41.82534 10.79719 34930 ft 440 kts 156°
2026-04-14 15:18 41.76907 10.82960 34928 ft 440 kts 156°
2026-04-14 15:19 41.71279 10.86199 34932 ft 441 kts 156°
2026-04-14 15:19 41.65641 10.89449 34935 ft 441 kts 156°
2026-04-14 15:20 41.60008 10.92688 34932 ft 441 kts 156°
2026-04-14 15:20 41.54361 10.95921 34927 ft 441 kts 156°
2026-04-14 15:21 41.48714 10.99147 34926 ft 441 kts 156°
2026-04-14 15:21 41.43060 11.02372 34928 ft 442 kts 156°
2026-04-14 15:22 41.37407 11.05593 34923 ft 443 kts 156°
2026-04-14 15:22 41.31737 11.08817 34922 ft 443 kts 156°
2026-04-14 15:23 41.26075 11.12035 34923 ft 443 kts 156°
2026-04-14 15:23 41.20409 11.15238 34925 ft 443 kts 157°
2026-04-14 15:24 41.14745 11.18438 34922 ft 442 kts 157°
2026-04-14 15:24 41.09079 11.21629 34918 ft 442 kts 157°
2026-04-14 15:25 41.03410 11.24830 34916 ft 443 kts 157°
2026-04-14 15:25 40.97735 11.28025 34921 ft 443 kts 157°
2026-04-14 15:26 40.92063 11.31209 34900 ft 443 kts 158°
2026-04-14 15:26 40.86421 11.34369 34905 ft 443 kts 158°
2026-04-14 15:27 40.80746 11.37533 34909 ft 443 kts 158°
2026-04-14 15:27 40.75069 11.40705 34918 ft 443 kts 158°
2026-04-14 15:28 40.69395 11.43868 34914 ft 443 kts 158°
2026-04-14 15:28 40.63712 11.47029 34914 ft 443 kts 158°
2026-04-14 15:29 40.58036 11.50177 34913 ft 443 kts 158°
2026-04-14 15:29 40.52359 11.53317 34913 ft 442 kts 158°
2026-04-14 15:30 40.46684 11.56449 34909 ft 442 kts 158°
2026-04-14 15:30 40.41017 11.59569 34910 ft 442 kts 158°
2026-04-14 15:31 40.35348 11.62686 34906 ft 442 kts 158°
2026-04-14 15:31 40.29676 11.65802 34916 ft 442 kts 158°
2026-04-14 15:32 40.24017 11.68915 34909 ft 440 kts 158°
2026-04-14 15:32 40.18379 11.72010 34916 ft 439 kts 158°
2026-04-14 15:33 40.12764 11.75075 34917 ft 437 kts 159°
2026-04-14 15:33 40.07154 11.78131 34914 ft 436 kts 159°
2026-04-14 15:34 40.01559 11.81186 34911 ft 436 kts 159°
2026-04-14 15:34 39.95958 11.84237 34910 ft 436 kts 159°
2026-04-14 15:35 39.90366 11.87270 34908 ft 435 kts 159°
2026-04-14 15:35 39.84833 11.90351 34909 ft 435 kts 156°
2026-04-14 15:36 39.79435 11.93920 34911 ft 435 kts 153°
2026-04-14 15:36 39.74112 11.97670 34911 ft 434 kts 153°
2026-04-14 15:37 39.68772 12.01325 34909 ft 434 kts 154°
2026-04-14 15:37 39.63397 12.04881 34895 ft 434 kts 155°
2026-04-14 15:38 39.57981 12.08447 34901 ft 434 kts 154°
2026-04-14 15:38 39.52643 12.11976 34907 ft 434 kts 154°
2026-04-14 15:39 39.47266 12.15541 34908 ft 434 kts 154°
2026-04-14 15:39 39.41896 12.19093 34908 ft 434 kts 154°
2026-04-14 15:40 39.36523 12.22641 34908 ft 434 kts 154°
2026-04-14 15:40 39.31129 12.26197 34906 ft 435 kts 154°
2026-04-14 15:41 39.25724 12.29747 34909 ft 436 kts 154°
2026-04-14 15:41 39.20305 12.33295 34912 ft 438 kts 154°
2026-04-14 15:42 39.14881 12.36859 34917 ft 437 kts 154°
2026-04-14 15:42 39.09454 12.40418 34909 ft 438 kts 155°
2026-04-14 15:43 39.04029 12.43971 34902 ft 438 kts 156°
2026-04-14 15:43 38.98595 12.47507 34912 ft 438 kts 156°
2026-04-14 15:44 38.93150 12.51033 34914 ft 438 kts 156°
2026-04-14 15:44 38.87710 12.54567 34923 ft 438 kts 156°
2026-04-14 15:45 38.82269 12.58089 34926 ft 437 kts 156°
2026-04-14 15:45 38.76836 12.61600 34924 ft 437 kts 156°
2026-04-14 15:46 38.71408 12.65111 34926 ft 437 kts 156°
2026-04-14 15:46 38.65981 12.68606 34924 ft 436 kts 156°
2026-04-14 15:47 38.60569 12.72098 34932 ft 435 kts 156°
2026-04-14 15:47 38.55174 12.75581 34929 ft 434 kts 156°
2026-04-14 15:48 38.49805 12.79029 34895 ft 427 kts 156°
2026-04-14 15:48 38.44543 12.82397 34892 ft 421 kts 156°
2026-04-14 15:49 38.39317 12.85728 34893 ft 418 kts 156°
2026-04-14 15:49 38.34123 12.89030 34896 ft 416 kts 156°
2026-04-14 15:50 38.28939 12.92329 34894 ft 416 kts 156°
2026-04-14 15:50 38.23794 12.95610 34900 ft 417 kts 156°
2026-04-14 15:51 38.18613 12.98915 34905 ft 417 kts 156°
2026-04-14 15:51 38.13416 13.02219 34897 ft 418 kts 156°
2026-04-14 15:52 38.08197 13.05528 34897 ft 420 kts 156°
2026-04-14 15:52 38.03817 13.08294 34899 ft 420 kts 156°
2026-04-14 15:53 37.98576 13.11592 34902 ft 421 kts 156°
2026-04-14 15:53 37.93355 13.14874 34908 ft 421 kts 156°
2026-04-14 15:54 37.85489 13.19838 34909 ft 422 kts 157°
2026-04-14 15:55 37.80235 13.23144 34911 ft 421 kts 157°
2026-04-14 15:55 37.74981 13.26436 34910 ft 422 kts 157°
2026-04-14 15:56 37.69720 13.29729 34916 ft 422 kts 157°
2026-04-14 15:56 37.64459 13.33017 34916 ft 422 kts 157°
2026-04-14 15:57 37.59190 13.36302 34914 ft 422 kts 157°
2026-04-14 15:57 37.53919 13.39583 34913 ft 422 kts 157°
2026-04-14 15:58 37.48651 13.42862 34915 ft 422 kts 157°
2026-04-14 15:58 37.43379 13.46142 34914 ft 422 kts 157°
2026-04-14 15:59 37.38103 13.49410 34926 ft 422 kts 158°
2026-04-14 15:59 37.32833 13.52666 34148 ft 424 kts 158°
2026-04-14 15:59 37.30188 13.54302 33348 ft 424 kts 158°
2026-04-14 16:00 37.27549 13.55938 32523 ft 423 kts 158°
2026-04-14 16:00 37.24913 13.57570 31717 ft 421 kts 158°
2026-04-14 16:00 37.22281 13.59195 30843 ft 421 kts 157°
2026-04-14 16:00 37.19653 13.60816 30001 ft 421 kts 157°
2026-04-14 16:01 37.17028 13.62433 29096 ft 419 kts 157°
2026-04-14 16:01 37.14421 13.64037 28282 ft 416 kts 158°
2026-04-14 16:01 37.11825 13.65616 27435 ft 415 kts 159°
2026-04-14 16:01 37.09192 13.67084 27059 ft 416 kts 160°
2026-04-14 16:02 37.06506 13.68480 26656 ft 417 kts 161°
2026-04-14 16:02 37.03797 13.69844 25662 ft 420 kts 161°
2026-04-14 16:02 37.01112 13.71176 25029 ft 410 kts 161°
2026-04-14 16:02 36.98485 13.72480 24376 ft 405 kts 161°
2026-04-14 16:03 36.95883 13.73786 23723 ft 401 kts 161°
2026-04-14 16:03 36.93310 13.75092 23033 ft 397 kts 160°
2026-04-14 16:03 36.90806 13.76378 22424 ft 391 kts 161°
2026-04-14 16:03 36.88315 13.77665 21803 ft 385 kts 160°
2026-04-14 16:04 36.85860 13.78932 21196 ft 379 kts 160°
2026-04-14 16:04 36.83437 13.80177 20608 ft 374 kts 160°
2026-04-14 16:04 36.81018 13.81417 20016 ft 369 kts 160°
2026-04-14 16:04 36.78681 13.82610 19452 ft 365 kts 160°
2026-04-14 16:05 36.76341 13.83801 18897 ft 362 kts 160°
2026-04-14 16:05 36.74023 13.84986 18363 ft 359 kts 160°
2026-04-14 16:05 36.71721 13.86163 17771 ft 357 kts 160°
2026-04-14 16:05 36.69424 13.87336 17277 ft 357 kts 160°
2026-04-14 16:06 36.67132 13.88505 16784 ft 355 kts 160°
2026-04-14 16:06 36.64848 13.89671 16296 ft 353 kts 160°
2026-04-14 16:06 36.62576 13.90828 15807 ft 351 kts 160°
2026-04-14 16:06 36.60321 13.91975 15338 ft 349 kts 160°
2026-04-14 16:07 36.58080 13.93115 14826 ft 347 kts 159°
2026-04-14 16:07 36.55850 13.94248 14320 ft 346 kts 159°
2026-04-14 16:07 36.53638 13.95373 13949 ft 343 kts 159°
2026-04-14 16:07 36.51434 13.96492 13425 ft 342 kts 159°
2026-04-14 16:08 36.49268 13.97682 12888 ft 339 kts 153°
2026-04-14 16:08 36.47182 13.99025 12358 ft 337 kts 153°
2026-04-14 16:08 36.45108 14.00361 11824 ft 335 kts 153°
2026-04-14 16:08 36.43045 14.01686 11289 ft 332 kts 153°
2026-04-14 16:09 36.41018 14.02984 10968 ft 321 kts 153°
2026-04-14 16:09 36.39084 14.04225 10840 ft 305 kts 153°
2026-04-14 16:09 36.37247 14.05406 10718 ft 291 kts 153°
2026-04-14 16:09 36.35485 14.06539 10565 ft 279 kts 153°
2026-04-14 16:10 36.33783 14.07632 10280 ft 274 kts 153°
2026-04-14 16:10 36.32094 14.08716 10043 ft 271 kts 153°
2026-04-14 16:10 36.30429 14.09784 9884 ft 270 kts 153°
2026-04-14 16:10 36.28759 14.10850 9760 ft 269 kts 153°
2026-04-14 16:11 36.27090 14.11917 9625 ft 270 kts 153°
2026-04-14 16:11 36.25423 14.12979 9506 ft 270 kts 153°
2026-04-14 16:11 36.23759 14.14035 9362 ft 269 kts 153°
2026-04-14 16:11 36.22081 14.15104 8886 ft 272 kts 153°
2026-04-14 16:12 36.20464 14.16136 8451 ft 272 kts 152°
2026-04-14 16:12 36.18792 14.17205 8094 ft 269 kts 152°
2026-04-14 16:12 36.17131 14.18267 7698 ft 268 kts 152°
2026-04-14 16:12 36.15476 14.19320 7270 ft 268 kts 152°
2026-04-14 16:13 36.13816 14.20375 6858 ft 267 kts 151°
2026-04-14 16:13 36.12162 14.21424 6360 ft 268 kts 151°
2026-04-14 16:13 36.10490 14.22485 5911 ft 269 kts 153°
2026-04-14 16:13 36.08821 14.23545 5361 ft 274 kts 153°
2026-04-14 16:14 36.07140 14.24612 5085 ft 268 kts 152°
2026-04-14 16:14 36.05515 14.25644 4944 ft 256 kts 152°
2026-04-14 16:14 36.03966 14.26626 4829 ft 245 kts 152°
2026-04-14 16:14 36.02499 14.27557 4727 ft 229 kts 152°
2026-04-14 16:15 36.01190 14.28602 4502 ft 221 kts 139°
2026-04-14 16:15 36.00088 14.29898 4223 ft 217 kts 134°
2026-04-14 16:15 35.99033 14.31221 3939 ft 216 kts 134°
2026-04-14 16:15 35.97978 14.32544 3653 ft 217 kts 134°
2026-04-14 16:16 35.96919 14.33865 3384 ft 213 kts 134°
2026-04-14 16:16 35.95914 14.35115 3190 ft 201 kts 134°
2026-04-14 16:16 35.94950 14.36314 2885 ft 195 kts 134°
2026-04-14 16:16 35.94011 14.37486 2598 ft 185 kts 134°
2026-04-14 16:17 35.93143 14.38576 2319 ft 171 kts 134°
2026-04-14 16:17 35.92340 14.39570 2104 ft 155 kts 133°
2026-04-14 16:17 35.91604 14.40484 1892 ft 149 kts 133°
2026-04-14 16:17 35.90890 14.41376 1684 ft 145 kts 132°
2026-04-14 16:18 35.90172 14.42268 1548 ft 147 kts 133°
2026-04-14 16:18 35.89470 14.43142 1346 ft 142 kts 133°
2026-04-14 16:18 35.88752 14.44028 1156 ft 148 kts 133°
2026-04-14 16:18 35.88018 14.44937 1013 ft 151 kts 133°
2026-04-14 16:19 35.87264 14.45860 763 ft 153 kts 135°
2026-04-14 16:19 35.86519 14.46791 561 ft 151 kts 133°
2026-04-14 16:19 35.85784 14.47708 333 ft 151 kts 136°
2026-04-14 16:19 35.85084 14.48569 269 ft 125 kts 135°
2026-04-14 16:20 35.84591 14.49181 259 ft 76 kts 134°
2026-04-14 16:20 35.84329 14.49508 258 ft 42 kts 135°
2026-04-14 16:20 35.84209 14.49664 256 ft 13 kts 111°
2026-04-14 16:20 35.84265 14.49691 256 ft 11 kts 346°
2026-04-14 16:21 35.84338 14.49666 257 ft 11 kts 345°
2026-04-14 16:21 35.84414 14.49640 258 ft 11 kts 343°
2026-04-14 16:21 35.84488 14.49600 259 ft 12 kts 327°
2026-04-14 16:21 35.84549 14.49537 259 ft 10 kts 321°
2026-04-14 16:22 35.84598 14.49546 259 ft 8 kts 40°
2026-04-14 16:22 35.84647 14.49579 259 ft 9 kts 359°
2026-04-14 16:22 35.84703 14.49548 259 ft 10 kts 324°
2026-04-14 16:22 35.84755 14.49488 259 ft 11 kts 314°
2026-04-14 16:23 35.84810 14.49419 259 ft 12 kts 314°
2026-04-14 16:23 35.84858 14.49360 259 ft 6 kts 315°
2026-04-14 16:23 35.84893 14.49317 259 ft 8 kts 315°
2026-04-14 16:23 35.84897 14.49261 259 ft 7 kts 235°
2026-04-14 16:24 35.84875 14.49234 258 ft 3 kts 224°
2026-04-14 16:24 35.84864 14.49220 258 ft 1 kts 225°
2026-04-14 16:24 35.84863 14.49219 258 ft 0 kts 225°